Time,TemperatureF,DewpointF,PressureIn,WindDirection,WindDirectionDegrees,WindSpeedMPH,WindSpeedGustMPH,Humidity,HourlyPrecipIn,Conditions,Clouds,dailyrainin,SoftwareType,DateUTC
2013-05-26 00:14:00,79.0,75.0,29.98,East,84,0.0,2.0,87,0.00,,,0.03,weatherlink.com 1.10,2013-05-26 04:14:00,
2013-05-26 00:29:00,78.7,75.0,29.98,SSE,166,2.0,9.0,87,0.00,,,0.03,weatherlink.com 1.10,2013-05-26 04:29:00,
2013-05-26 00:44:00,78.6,75.0,29.97,East,96,1.0,6.0,87,0.00,,,0.03,weatherlink.com 1.10,2013-05-26 04:44:00,
2013-05-26 00:59:00,78.7,75.0,29.97,SE,129,2.0,2.0,87,0.00,,,0.03,weatherlink.com 1.10,2013-05-26 04:59:00,
2013-05-26 01:14:00,78.4,75.0,29.97,ESE,115,0.0,1.0,88,0.00,,,0.03,weatherlink.com 1.10,2013-05-26 05:14:00,
2013-05-26 01:29:00,78.1,74.0,29.96,ESE,117,0.0,1.0,88,0.00,,,0.03,weatherlink.com 1.10,2013-05-26 05:29:00,
2013-05-26 01:44:00,77.9,74.0,29.96,ESE,117,0.0,1.0,88,0.00,,,0.03,weatherlink.com 1.10,2013-05-26 05:44:00,
2013-05-26 01:59:00,77.5,74.0,29.96,SE,139,1.0,2.0,88,0.00,,,0.03,weatherlink.com 1.10,2013-05-26 05:59:00,
2013-05-26 02:15:00,76.9,73.0,29.95,SE,131,0.0,1.0,88,0.00,,,0.03,weatherlink.com 1.10,2013-05-26 06:15:00,
2013-05-26 02:29:00,76.7,73.0,29.95,ESE,103,0.0,2.0,88,0.00,,,0.03,weatherlink.com 1.10,2013-05-26 06:29:00,
2013-05-26 02:44:00,76.3,73.0,29.95,ESE,123,0.0,2.0,89,0.00,,,0.03,weatherlink.com 1.10,2013-05-26 06:44:00,
2013-05-26 02:59:00,75.9,73.0,29.95,SE,129,0.0,1.0,89,0.00,,,0.03,weatherlink.com 1.10,2013-05-26 06:59:00,
2013-05-26 03:14:00,75.9,73.0,29.94,SE,129,0.0,1.0,90,0.00,,,0.03,weatherlink.com 1.10,2013-05-26 07:14:00,
2013-05-26 03:29:00,75.8,73.0,29.94,SE,129,0.0,1.0,90,0.00,,,0.03,weatherlink.com 1.10,2013-05-26 07:29:00,
2013-05-26 03:44:00,75.6,73.0,29.94,SE,129,0.0,1.0,90,0.00,,,0.03,weatherlink.com 1.10,2013-05-26 07:44:00,
2013-05-26 03:59:00,75.5,73.0,29.94,SE,130,0.0,1.0,90,0.00,,,0.03,weatherlink.com 1.10,2013-05-26 07:59:00,
2013-05-26 04:14:00,75.2,72.0,29.94,SE,129,0.0,1.0,90,0.00,,,0.03,weatherlink.com 1.10,2013-05-26 08:14:00,
2013-05-26 04:29:00,75.1,72.0,29.95,SE,127,0.0,1.0,91,0.00,,,0.03,weatherlink.com 1.10,2013-05-26 08:29:00,
2013-05-26 04:44:00,75.2,73.0,29.95,ESE,120,0.0,2.0,91,0.00,,,0.03,weatherlink.com 1.10,2013-05-26 08:44:00,
2013-05-26 04:59:00,75.2,73.0,29.95,SE,141,1.0,2.0,91,0.00,,,0.03,weatherlink.com 1.10,2013-05-26 08:59:00,
2013-05-26 05:14:00,75.2,73.0,29.95,ESE,123,2.0,3.0,91,0.00,,,0.03,weatherlink.com 1.10,2013-05-26 09:14:00,
2013-05-26 05:29:00,75.1,72.0,29.95,ESE,121,0.0,1.0,91,0.00,,,0.03,weatherlink.com 1.10,2013-05-26 09:29:00,
2013-05-26 05:45:00,75.0,73.0,29.95,ESE,122,0.0,1.0,92,0.00,,,0.03,weatherlink.com 1.10,2013-05-26 09:45:00,
2013-05-26 06:00:00,75.2,73.0,29.95,ESE,121,0.0,1.0,93,0.00,,,0.03,weatherlink.com 1.10,2013-05-26 10:00:00,
2013-05-26 06:15:00,75.2,73.0,29.96,West,262,1.0,2.0,93,0.00,,,0.03,weatherlink.com 1.10,2013-05-26 10:15:00,
2013-05-26 06:30:00,76.0,74.0,29.97,WSW,258,1.0,1.0,92,0.00,,,0.03,weatherlink.com 1.10,2013-05-26 10:30:00,
2013-05-26 06:45:00,78.2,75.0,29.97,SE,138,0.0,2.0,89,0.00,,,0.03,weatherlink.com 1.10,2013-05-26 10:45:00,
2013-05-26 07:00:00,81.4,76.0,29.98,SE,139,0.0,1.0,84,0.00,,,0.00,weatherlink.com 1.10,2013-05-26 11:00:00,
2013-05-26 07:15:00,82.6,76.0,29.98,SE,140,1.0,2.0,80,0.00,,,0.00,weatherlink.com 1.10,2013-05-26 11:15:00,
2013-05-26 07:30:00,82.2,76.0,29.98,East,82,4.0,5.0,81,0.00,,,0.00,weatherlink.com 1.10,2013-05-26 11:30:00,
2013-05-26 07:45:00,81.9,76.0,29.98,ENE,75,2.0,7.0,81,0.00,,,0.00,weatherlink.com 1.10,2013-05-26 11:45:00,
2013-05-26 08:00:00,82.6,76.0,29.99,ENE,73,3.0,4.0,81,0.00,,,0.00,weatherlink.com 1.10,2013-05-26 12:00:00,
2013-05-26 08:15:00,83.0,76.0,29.99,East,90,3.0,8.0,80,0.00,,,0.00,weatherlink.com 1.10,2013-05-26 12:15:00,
2013-05-26 08:30:00,82.5,75.0,29.99,ENE,66,8.0,12.0,79,0.00,,,0.00,weatherlink.com 1.10,2013-05-26 12:30:00,
2013-05-26 08:45:00,82.9,75.0,29.99,East,100,6.0,10.0,78,0.00,,,0.00,weatherlink.com 1.10,2013-05-26 12:45:00,
2013-05-26 09:00:00,83.3,76.0,29.99,ENE,64,4.0,8.0,79,0.00,,,0.00,weatherlink.com 1.10,2013-05-26 13:00:00,
2013-05-26 09:15:00,83.6,77.0,30.00,ENE,78,9.0,10.0,79,0.00,,,0.00,weatherlink.com 1.10,2013-05-26 13:15:00,
2013-05-26 09:30:00,83.5,76.0,30.00,ENE,70,8.0,10.0,78,0.00,,,0.00,weatherlink.com 1.10,2013-05-26 13:30:00,
2013-05-26 09:45:00,84.1,76.0,30.00,NE,49,5.0,10.0,77,0.00,,,0.00,weatherlink.com 1.10,2013-05-26 13:45:00,
2013-05-26 10:00:00,84.1,76.0,30.00,NE,53,8.0,10.0,77,0.00,,,0.00,weatherlink.com 1.10,2013-05-26 14:00:00,
2013-05-26 10:15:00,84.3,76.0,30.00,East,89,3.0,10.0,76,0.00,,,0.00,weatherlink.com 1.10,2013-05-26 14:15:00,
2013-05-26 10:30:00,84.7,76.0,30.00,East,79,6.0,10.0,75,0.00,,,0.00,weatherlink.com 1.10,2013-05-26 14:30:00,
2013-05-26 10:45:00,84.8,76.0,30.00,East,90,8.0,13.0,74,0.00,,,0.00,weatherlink.com 1.10,2013-05-26 14:45:00,
2013-05-26 11:00:00,85.3,76.0,29.99,ENE,77,5.0,11.0,74,0.00,,,0.00,weatherlink.com 1.10,2013-05-26 15:00:00,
2013-05-26 11:15:00,85.4,75.0,30.00,East,91,7.0,12.0,72,0.00,,,0.00,weatherlink.com 1.10,2013-05-26 15:15:00,
2013-05-26 11:30:00,85.7,75.0,29.99,East,80,10.0,12.0,71,0.00,,,0.00,weatherlink.com 1.10,2013-05-26 15:30:00,
2013-05-26 11:45:00,85.0,76.0,29.99,NE,39,6.0,11.0,74,0.00,,,0.00,weatherlink.com 1.10,2013-05-26 15:45:00,
2013-05-26 12:00:00,84.4,77.0,29.99,NE,41,7.0,10.0,77,0.00,,,0.00,weatherlink.com 1.10,2013-05-26 16:00:00,
2013-05-26 12:15:00,84.2,76.0,29.99,East,94,9.0,10.0,76,0.00,,,0.00,weatherlink.com 1.10,2013-05-26 16:15:00,
2013-05-26 12:30:00,84.0,76.0,30.00,East,94,4.0,14.0,77,0.00,,,0.00,weatherlink.com 1.10,2013-05-26 16:30:00,
2013-05-26 12:45:00,81.6,73.0,30.00,SE,131,5.0,12.0,76,0.00,,,0.00,weatherlink.com 1.10,2013-05-26 16:45:00,
2013-05-26 13:01:00,81.8,78.0,29.99,ENE,78,4.0,9.0,87,0.01,,,0.01,weatherlink.com 1.10,2013-05-26 17:01:00,
2013-05-26 13:16:00,82.2,78.0,29.98,SE,142,3.0,10.0,86,0.01,,,0.01,weatherlink.com 1.10,2013-05-26 17:16:00,
2013-05-26 13:31:00,83.1,77.0,29.97,East,83,2.0,10.0,82,0.01,,,0.01,weatherlink.com 1.10,2013-05-26 17:31:00,
2013-05-26 13:46:00,83.1,76.0,29.97,East,83,9.0,11.0,80,0.01,,,0.01,weatherlink.com 1.10,2013-05-26 17:46:00,
2013-05-26 14:01:00,84.3,76.0,29.97,NE,45,5.0,10.0,77,0.00,,,0.01,weatherlink.com 1.10,2013-05-26 18:01:00,
2013-05-26 14:16:00,83.8,76.0,29.97,ENE,68,5.0,10.0,78,0.00,,,0.01,weatherlink.com 1.10,2013-05-26 18:16:00,
2013-05-26 14:31:00,82.4,76.0,29.97,ENE,77,7.0,9.0,82,0.00,,,0.01,weatherlink.com 1.10,2013-05-26 18:31:00,
2013-05-26 14:46:00,83.0,76.0,29.97,SE,128,3.0,7.0,80,0.00,,,0.01,weatherlink.com 1.10,2013-05-26 18:46:00,
2013-05-26 15:01:00,83.0,76.0,29.97,ENE,65,7.0,10.0,79,0.00,,,0.01,weatherlink.com 1.10,2013-05-26 19:01:00,
2013-05-26 15:16:00,82.9,76.0,29.96,NE,49,4.0,9.0,80,0.00,,,0.01,weatherlink.com 1.10,2013-05-26 19:16:00,
2013-05-26 15:31:00,82.8,76.0,29.96,East,84,6.0,8.0,80,0.00,,,0.01,weatherlink.com 1.10,2013-05-26 19:31:00,
2013-05-26 15:46:00,82.5,76.0,29.96,NE,52,5.0,10.0,81,0.00,,,0.01,weatherlink.com 1.10,2013-05-26 19:46:00,
2013-05-26 16:01:00,82.3,76.0,29.96,East,84,5.0,11.0,82,0.00,,,0.01,weatherlink.com 1.10,2013-05-26 20:01:00,
2013-05-26 16:16:00,81.9,76.0,29.95,East,82,5.0,10.0,83,0.00,,,0.01,weatherlink.com 1.10,2013-05-26 20:16:00,
2013-05-26 16:31:00,81.8,76.0,29.95,ENE,60,7.0,9.0,83,0.00,,,0.01,weatherlink.com 1.10,2013-05-26 20:31:00,
2013-05-26 16:46:00,81.7,76.0,29.95,ENE,76,7.0,9.0,83,0.00,,,0.01,weatherlink.com 1.10,2013-05-26 20:46:00,
2013-05-26 17:01:00,81.6,76.0,29.95,East,89,3.0,8.0,84,0.00,,,0.01,weatherlink.com 1.10,2013-05-26 21:01:00,
2013-05-26 17:16:00,81.5,76.0,29.95,East,97,2.0,8.0,82,0.00,,,0.01,weatherlink.com 1.10,2013-05-26 21:16:00,
2013-05-26 17:31:00,81.7,76.0,29.95,East,89,3.0,10.0,83,0.00,,,0.01,weatherlink.com 1.10,2013-05-26 21:31:00,
2013-05-26 17:47:00,81.3,76.0,29.95,ENE,74,5.0,8.0,84,0.00,,,0.01,weatherlink.com 1.10,2013-05-26 21:47:00,
2013-05-26 18:01:00,81.1,76.0,29.94,ENE,70,3.0,9.0,85,0.00,,,0.01,weatherlink.com 1.10,2013-05-26 22:01:00,
2013-05-26 18:16:00,81.0,75.0,29.95,ENE,67,4.0,9.0,83,0.00,,,0.01,weatherlink.com 1.10,2013-05-26 22:16:00,
2013-05-26 18:31:00,80.8,75.0,29.95,East,90,6.0,11.0,83,0.00,,,0.01,weatherlink.com 1.10,2013-05-26 22:31:00,
2013-05-26 18:46:00,80.7,76.0,29.95,ENE,68,4.0,7.0,85,0.00,,,0.01,weatherlink.com 1.10,2013-05-26 22:46:00,
2013-05-26 19:01:00,80.5,76.0,29.95,NE,56,3.0,8.0,87,0.00,,,0.01,weatherlink.com 1.10,2013-05-26 23:01:00,
2013-05-26 19:16:00,80.3,76.0,29.96,NNE,30,8.0,10.0,86,0.00,,,0.01,weatherlink.com 1.10,2013-05-26 23:16:00,
2013-05-26 19:31:00,80.3,75.0,29.97,ENE,58,4.0,10.0,84,0.00,,,0.01,weatherlink.com 1.10,2013-05-26 23:31:00,
2013-05-26 19:46:00,80.2,76.0,29.97,ENE,77,5.0,8.0,86,0.00,,,0.01,weatherlink.com 1.10,2013-05-26 23:46:00,
2013-05-26 20:01:00,79.9,75.0,29.97,East,98,2.0,11.0,86,0.00,,,0.01,weatherlink.com 1.10,2013-05-27 00:01:00,
2013-05-26 20:16:00,79.9,76.0,29.98,East,83,2.0,9.0,87,0.00,,,0.01,weatherlink.com 1.10,2013-05-27 00:16:00,
2013-05-26 20:31:00,79.8,76.0,29.98,ENE,78,8.0,9.0,87,0.00,,,0.01,weatherlink.com 1.10,2013-05-27 00:31:00,
2013-05-26 20:46:00,79.7,76.0,29.99,ESE,106,7.0,11.0,87,0.00,,,0.01,weatherlink.com 1.10,2013-05-27 00:46:00,
2013-05-26 21:01:00,79.8,76.0,30.00,ENE,71,2.0,7.0,87,0.00,,,0.01,weatherlink.com 1.10,2013-05-27 01:01:00,
2013-05-26 21:16:00,79.7,76.0,30.00,East,80,3.0,7.0,87,0.00,,,0.01,weatherlink.com 1.10,2013-05-27 01:16:00,
2013-05-26 21:31:00,79.7,76.0,30.00,ENE,68,3.0,6.0,87,0.00,,,0.01,weatherlink.com 1.10,2013-05-27 01:31:00,
2013-05-26 21:46:00,79.7,76.0,30.01,NE,53,4.0,8.0,88,0.00,,,0.01,weatherlink.com 1.10,2013-05-27 01:46:00,
2013-05-26 22:01:00,79.0,76.0,30.01,ESE,107,2.0,6.0,90,0.01,,,0.02,weatherlink.com 1.10,2013-05-27 02:01:00,
2013-05-26 22:16:00,78.5,76.0,30.01,SE,135,0.0,5.0,91,0.01,,,0.02,weatherlink.com 1.10,2013-05-27 02:16:00,
2013-05-26 22:31:00,78.3,76.0,30.01,ESE,104,0.0,3.0,92,0.01,,,0.02,weatherlink.com 1.10,2013-05-27 02:31:00,
2013-05-26 22:46:00,78.0,76.0,30.02,East,87,1.0,3.0,92,0.00,,,0.02,weatherlink.com 1.10,2013-05-27 02:46:00,
2013-05-26 23:01:00,78.0,76.0,30.02,East,97,2.0,3.0,92,0.00,,,0.02,weatherlink.com 1.10,2013-05-27 03:01:00,
2013-05-26 23:16:00,78.3,75.0,30.01,ESE,110,2.0,4.0,90,0.00,,,0.02,weatherlink.com 1.10,2013-05-27 03:16:00,
2013-05-26 23:31:00,78.3,75.0,30.01,ESE,107,1.0,6.0,90,0.00,,,0.02,weatherlink.com 1.10,2013-05-27 03:31:00,
2013-05-26 23:46:00,78.4,75.0,30.00,East,95,4.0,6.0,89,0.00,,,0.02,weatherlink.com 1.10,2013-05-27 03:46:00,